{"data":{"norad_id":63600,"intl_designator":"2025-078B","name":"SHIYAN-27 OBJECT B","alt_names":[],"object_type":"PAYLOAD","status":"ACTIVE","operator":null,"country":"PRC","launch_date":"2025-04-18","launch_site_code":"TAISC","launch_vehicle":null,"mission":null,"orbit_class":"UNKNOWN","rcs_meters":null,"size_class":null,"mass_kg":null,"dimensions":null,"purposes":[],"wikipedia_slug":null,"has_3d_model":false,"image_url":null,"decayed_at":null,"tle_current":{"epoch":"2026-09-21T23:57:51.054048Z","epoch_age_seconds":78287,"freshness":"FRESH","line1":"1 63600U 25078B   26264.99850757  .00000005  00000+0  69353-4 0  9991","line2":"2 63600  99.6957 270.7745 0001106  80.8456 279.2807 13.57249341 70666","mean_motion":13.57249341,"eccentricity":0.0001106,"inclination_deg":99.6957,"raan_deg":270.7745,"arg_perigee_deg":80.8456,"mean_anomaly_deg":279.2807,"bstar":6.9353e-5,"rev_number":7066,"period_min":106.09693860223,"perigee_km":1044.884402245,"apogee_km":1046.5265562014,"semimajor_km":7423.8424792232,"source":"CELESTRAK","updated_at":"2026-09-22T09:00:29.238122Z"}}}